PBO Station Position Time Series. Reference Frame : NAM14
Format Version,1.1.0
4-character ID,OK05
Station name,OK05_PawneeEQ_OK
Begin Date, 2016-11-02
End Date, 2019-10-07
Release Date, 2019-10-08
Reference position, 36.4322807483 North Latitude, -96.8938608349 East Longitude, 277.53515 meters elevation,
Date, North (mm), East (mm), Vertical (mm), North Std. Deviation (mm), East Std. Deviation (mm),              Vertical Std. Deviation (mm), Quality,
2016-11-02,0.00, 0.00, 0.00, 1.92, 1.60, 7.32, repro,
2016-11-03,1.51, 0.43, -7.03, 1.87, 1.56, 7.11, repro,
2016-11-04,0.95, 1.07, -9.24, 1.87, 1.56, 7.06, repro,
2016-11-05,1.13, 0.10, -0.38, 1.88, 1.57, 7.14, repro,
2016-11-06,-1.09, -0.23, 4.28, 1.88, 1.58, 7.19, repro,
2016-11-07,-0.73, 2.48, 0.98, 1.89, 1.58, 7.23, repro,
2016-11-08,0.61, 1.24, -3.60, 1.85, 1.56, 7.07, repro,
2016-11-09,0.77, -0.96, -5.44, 1.87, 1.56, 7.08, repro,
2016-11-10,1.27, -0.46, -8.56, 1.92, 1.58, 7.31, repro,
2016-11-11,0.82, -0.07, -3.83, 1.87, 1.56, 7.07, repro,
2016-11-12,0.95, 0.47, -0.71, 1.88, 1.57, 7.11, repro,
2016-11-13,-0.37, -0.41, -2.82, 1.86, 1.57, 7.07, repro,
2016-11-14,0.55, -0.13, 0.92, 1.87, 1.56, 7.04, repro,
2016-11-15,-0.16, 0.68, 6.53, 1.88, 1.56, 7.08, repro,
2016-11-16,-0.21, -0.62, 5.60, 1.87, 1.56, 7.10, repro,
2016-11-17,-1.02, 1.49, 5.16, 1.86, 1.56, 7.05, repro,
2016-11-18,0.72, -0.32, -7.57, 1.88, 1.57, 7.16, repro,
2016-11-19,-0.80, 0.61, -5.92, 1.87, 1.56, 7.09, repro,
2016-11-20,0.37, 0.56, -6.19, 1.88, 1.57, 7.12, repro,
2016-11-21,0.53, 0.83, 2.86, 1.89, 1.56, 7.15, repro,
2016-11-22,-0.53, -0.07, 4.73, 1.87, 1.56, 7.11, repro,
2016-11-23,-0.15, 0.36, -1.30, 1.87, 1.56, 7.12, repro,
2016-11-24,-0.14, 1.35, -0.08, 1.87, 1.56, 7.09, repro,
2016-11-25,0.49, -0.03, -6.54, 1.87, 1.56, 7.11, repro,
2016-11-26,0.81, 1.68, -6.73, 1.92, 1.58, 7.23, repro,
2016-11-27,-1.61, 0.81, 0.50, 1.94, 1.61, 7.35, repro,
2016-11-28,-0.24, 0.63, 9.27, 1.86, 1.55, 7.03, repro,
2016-11-29,-0.20, -0.15, 12.51, 1.87, 1.56, 7.06, repro,
2016-11-30,0.01, -0.80, 0.49, 1.87, 1.57, 7.11, repro,
2016-12-01,0.24, 0.03, 1.64, 1.93, 1.59, 7.30, repro,
2016-12-02,1.51, 0.81, -1.84, 1.93, 1.60, 7.29, repro,
2016-12-03,0.31, 0.78, -2.31, 1.88, 1.57, 7.12, repro,
2016-12-04,-0.56, 1.51, 5.66, 1.86, 1.55, 7.00, repro,
2016-12-05,-0.92, 1.55, 6.63, 1.87, 1.57, 7.09, repro,
2016-12-06,-0.02, 1.90, -0.09, 1.88, 1.56, 7.10, repro,
2016-12-07,0.22, 0.55, -0.10, 1.89, 1.58, 7.20, repro,
2016-12-08,1.28, -0.35, -12.90, 1.88, 1.56, 7.12, repro,
2016-12-09,0.33, 0.77, -12.82, 1.90, 1.60, 7.21, repro,
2016-12-10,0.61, 0.74, -9.48, 1.86, 1.56, 7.06, repro,
2016-12-11,-0.86, 0.74, -0.05, 1.87, 1.57, 7.11, repro,
2016-12-12,1.15, 0.52, -3.91, 1.90, 1.59, 7.25, repro,
2016-12-13,1.26, 0.73, -4.23, 1.92, 1.61, 7.29, repro,
2016-12-14,-0.13, 1.09, -2.62, 1.89, 1.59, 7.16, repro,
2016-12-15,0.76, 0.44, -8.73, 1.87, 1.55, 7.06, repro,
2016-12-16,1.85, 0.48, 3.64, 1.86, 1.57, 7.10, repro,
2016-12-17,0.91, 0.59, 0.22, 1.87, 1.57, 7.10, repro,
2016-12-18,0.59, -0.79, -11.89, 1.88, 1.57, 7.14, repro,
2016-12-19,1.06, 0.34, -15.11, 1.91, 1.60, 7.32, repro,
2016-12-20,0.30, 0.51, -4.64, 1.86, 1.54, 6.98, repro,
2016-12-21,0.52, -0.17, -0.98, 1.87, 1.57, 7.10, repro,
2016-12-22,0.39, 0.73, -4.89, 1.87, 1.57, 7.14, repro,
2016-12-23,-0.20, 0.76, 2.23, 1.88, 1.57, 7.14, repro,
2016-12-24,-0.05, 1.82, 0.67, 1.88, 1.57, 7.12, repro,
2016-12-25,1.72, 3.85, 4.50, 1.95, 1.60, 7.29, repro,
2016-12-26,0.15, 0.27, 4.47, 1.89, 1.57, 7.12, repro,
2016-12-27,0.92, 0.67, -2.24, 1.87, 1.57, 7.11, repro,
2016-12-28,0.27, 0.17, 4.74, 1.88, 1.59, 7.21, repro,
2016-12-29,0.47, -0.65, -5.69, 1.89, 1.59, 7.24, repro,
2016-12-30,-0.02, 0.64, -2.99, 1.89, 1.58, 7.23, repro,
2016-12-31,-0.67, 0.65, 9.24, 1.88, 1.57, 7.14, repro,
2017-01-01,0.37, 1.44, 5.69, 1.87, 1.57, 7.08, repro,
2017-01-02,0.82, 1.41, 1.03, 1.88, 1.58, 7.14, repro,
2017-01-03,0.64, 1.07, -2.82, 1.88, 1.59, 7.18, repro,
2017-01-04,0.82, 1.12, -3.49, 1.88, 1.59, 7.23, repro,
2017-01-05,0.90, 0.39, 2.10, 1.88, 1.58, 7.13, repro,
2017-01-06,0.34, 0.37, -3.41, 1.88, 1.58, 7.12, repro,
2017-01-07,1.55, 0.49, -13.58, 1.88, 1.57, 7.12, repro,
2017-01-08,-0.02, 1.51, -9.34, 1.87, 1.57, 7.10, repro,
2017-01-09,-0.29, 1.66, -4.10, 1.88, 1.60, 7.23, repro,
2017-01-10,0.09, -0.13, 0.23, 1.92, 1.62, 7.29, repro,
2017-01-11,0.61, 1.54, 1.37, 1.89, 1.59, 7.25, repro,
2017-01-12,1.02, 1.70, 2.22, 1.88, 1.59, 7.20, repro,
2017-01-13,2.26, 1.44, -11.61, 1.88, 1.59, 7.19, repro,
2017-01-14,1.72, 5.79, -20.44, 1.88, 1.59, 7.18, repro,
2017-01-15,1.46, 4.77, -22.40, 1.89, 1.59, 7.22, repro,
2017-01-16,0.93, 2.26, -1.16, 1.90, 1.58, 7.21, repro,
2017-01-17,0.99, 0.64, -1.50, 1.94, 1.59, 7.37, repro,
2017-01-18,1.08, 1.12, 0.34, 1.94, 1.60, 7.41, repro,
2017-01-19,0.50, 1.52, 4.03, 1.92, 1.59, 7.35, repro,
2017-01-20,-1.21, 1.51, 14.77, 1.86, 1.58, 7.10, repro,
2017-01-21,-0.49, 2.31, 7.92, 1.87, 1.58, 7.17, repro,
2017-01-22,-0.70, 2.09, 3.21, 1.88, 1.56, 7.10, repro,
2017-01-23,-0.34, 1.86, -0.02, 1.88, 1.58, 7.19, repro,
2017-01-24,-0.84, 2.94, 10.38, 1.87, 1.58, 7.13, repro,
2017-01-25,-1.22, 1.67, 1.50, 1.88, 1.57, 7.13, repro,
2017-01-26,-1.13, 1.87, -3.94, 1.87, 1.56, 7.08, repro,
2017-01-27,-0.88, 2.07, -9.85, 1.87, 1.56, 7.10, repro,
2017-01-28,-0.56, 1.30, -11.00, 1.87, 1.56, 7.08, repro,
2017-01-29,0.71, 0.40, -6.61, 1.88, 1.58, 7.22, repro,
2017-01-30,0.48, 2.14, -5.05, 1.87, 1.56, 7.08, repro,
2017-01-31,-0.80, 2.40, -8.64, 1.86, 1.56, 7.05, repro,
2017-02-01,-0.88, 2.37, -0.78, 1.86, 1.56, 7.09, repro,
2017-02-02,-0.30, 2.50, -7.83, 1.88, 1.56, 7.15, repro,
2017-02-03,-0.96, 1.96, -12.55, 1.87, 1.57, 7.16, repro,
2017-02-04,-0.26, 3.23, -4.19, 1.88, 1.57, 7.13, repro,
2017-02-05,-0.01, 2.22, -3.88, 1.87, 1.57, 7.08, repro,
2017-02-06,-0.53, 3.49, -2.30, 1.87, 1.57, 7.12, repro,
2017-02-07,-0.85, 2.25, 3.07, 1.91, 1.59, 7.18, repro,
2017-02-08,0.37, 1.64, -0.06, 1.89, 1.56, 7.12, repro,
2017-02-09,-0.37, 2.72, -6.37, 1.88, 1.58, 7.14, repro,
2017-02-10,-1.32, 3.36, 0.84, 1.88, 1.58, 7.12, repro,
2017-02-11,-0.97, 2.34, -1.15, 1.87, 1.57, 7.10, repro,
2017-02-12,-0.51, 1.24, -10.89, 1.86, 1.57, 7.07, repro,
2017-02-13,-0.85, 2.17, -9.31, 1.88, 1.57, 7.12, repro,
2017-02-14,0.55, 1.42, -3.55, 1.86, 1.57, 7.10, repro,
2017-02-15,0.34, 1.28, -0.20, 1.88, 1.57, 7.14, repro,
2017-02-16,-1.41, 1.96, 2.43, 1.87, 1.57, 7.09, repro,
2017-02-17,-1.27, 3.52, 0.23, 1.89, 1.61, 7.29, repro,
2017-02-18,-0.89, 2.73, 0.49, 1.90, 1.60, 7.27, repro,
2017-02-19,0.31, 2.59, -0.29, 1.87, 1.56, 7.10, repro,
2017-02-20,-1.62, 3.64, -0.32, 1.87, 1.57, 7.11, repro,
2017-02-21,0.01, 2.94, -0.44, 1.88, 1.57, 7.14, repro,
2017-02-22,-1.09, 3.18, 1.95, 1.86, 1.57, 7.11, repro,
2017-02-23,-2.00, 3.01, 6.80, 1.87, 1.57, 7.14, repro,
2017-02-24,-0.29, 2.82, 4.76, 1.92, 1.58, 7.21, repro,
2017-02-25,-2.12, 2.37, 2.30, 1.93, 1.63, 7.34, repro,
2017-02-26,-0.87, 3.73, -1.02, 1.88, 1.57, 7.11, repro,
2017-02-27,-1.68, 4.27, 2.56, 1.89, 1.61, 7.27, repro,
2017-02-28,0.02, 3.99, -2.67, 1.87, 1.57, 7.15, repro,
2017-03-01,-1.92, 2.49, 1.06, 1.91, 1.60, 7.30, repro,
2017-03-02,-1.13, 2.63, -7.26, 1.88, 1.56, 7.14, repro,
2017-03-03,-1.32, 2.89, -10.79, 1.86, 1.56, 7.06, repro,
2017-03-04,-2.53, 3.62, -8.49, 1.87, 1.57, 7.11, repro,
2017-03-05,-3.73, 4.80, -4.47, 1.86, 1.57, 7.12, repro,
2017-03-06,-0.96, 2.44, 3.23, 1.93, 1.62, 7.34, repro,
2017-03-07,-1.72, 2.31, -1.62, 1.94, 1.65, 7.51, repro,
2017-03-08,-2.45, 3.50, -2.38, 1.88, 1.57, 7.16, repro,
2017-03-09,-1.29, 3.48, -12.29, 1.92, 1.61, 7.30, repro,
2017-03-10,-0.58, 3.50, -6.11, 1.90, 1.62, 7.33, repro,
2017-03-11,0.39, 2.95, -7.51, 1.88, 1.60, 7.25, repro,
2017-03-12,-1.86, 3.03, -4.02, 1.88, 1.58, 7.20, repro,
2017-03-13,-2.03, 3.08, 0.19, 1.88, 1.57, 7.16, repro,
2017-03-14,-1.19, 2.09, -7.43, 1.88, 1.56, 7.14, repro,
2017-03-15,-1.57, 3.37, -5.40, 1.87, 1.57, 7.15, repro,
2017-03-16,-3.12, 3.34, -2.95, 1.89, 1.60, 7.18, repro,
2017-03-17,-2.31, 3.90, -5.85, 1.87, 1.57, 7.16, repro,
2017-03-18,-2.14, 3.32, -6.43, 1.88, 1.57, 7.16, repro,
2017-03-19,-2.90, 3.23, -2.97, 1.87, 1.57, 7.16, repro,
2017-03-20,-2.51, 3.10, -5.74, 1.87, 1.57, 7.12, repro,
2017-03-21,-0.88, 3.46, -0.64, 1.87, 1.57, 7.16, repro,
2017-03-22,-1.52, 3.98, -4.02, 1.88, 1.57, 7.16, repro,
2017-03-23,-2.90, 4.61, -1.50, 1.92, 1.60, 7.30, repro,
2017-03-24,-2.07, 3.79, 9.85, 1.97, 1.68, 7.69, repro,
2017-03-25,-2.93, 3.53, 7.11, 1.85, 1.57, 7.08, repro,
2017-03-26,-2.01, 4.85, 3.67, 1.92, 1.64, 7.32, repro,
2017-03-27,-1.67, 1.34, 3.11, 1.97, 1.68, 7.58, repro,
2017-03-28,-0.10, 3.60, 0.43, 1.86, 1.56, 7.10, repro,
2017-03-29,-2.43, 3.98, 1.01, 1.95, 1.62, 7.45, repro,
2017-03-30,-2.44, 3.15, 2.47, 1.85, 1.57, 7.10, repro,
2017-03-31,-1.84, 4.49, 1.96, 1.87, 1.57, 7.15, repro,
2017-04-01,-0.86, 3.33, 3.30, 1.87, 1.58, 7.12, repro,
2017-04-02,-2.35, 5.37, 3.90, 1.88, 1.59, 7.23, repro,
2017-04-03,-2.05, 1.88, 9.66, 1.87, 1.58, 7.16, repro,
2017-04-04,-2.97, 2.52, 6.67, 1.93, 1.67, 7.41, repro,
2017-04-05,-1.41, 2.80, 0.36, 1.89, 1.61, 7.29, repro,
2017-04-06,-2.05, 3.61, -2.83, 1.89, 1.59, 7.23, repro,
2017-04-07,-2.11, 3.14, 3.11, 1.87, 1.57, 7.12, repro,
2017-04-08,-4.08, 2.69, 8.38, 1.88, 1.58, 7.19, repro,
2017-04-09,-3.45, 3.27, 7.99, 1.90, 1.59, 7.27, repro,
2017-04-10,-1.51, 2.22, 4.18, 1.87, 1.59, 7.20, repro,
2017-04-11,-2.88, 4.09, -2.55, 1.87, 1.57, 7.13, repro,
2017-04-12,-2.89, 3.59, -3.75, 1.86, 1.58, 7.15, repro,
2017-04-13,-2.08, 5.53, 0.68, 1.87, 1.58, 7.17, repro,
2017-04-14,-4.52, 4.18, -1.30, 1.98, 1.63, 7.50, repro,
2017-04-15,-3.73, 4.78, -5.47, 1.88, 1.57, 7.18, repro,
2017-04-16,-4.61, 4.93, 7.35, 1.89, 1.60, 7.30, repro,
2017-04-17,-2.87, 4.93, 4.46, 1.96, 1.64, 7.50, repro,
2017-04-18,-4.52, 3.12, 1.07, 1.87, 1.58, 7.16, repro,
2017-04-19,-4.93, 4.50, 1.97, 1.88, 1.58, 7.17, repro,
2017-04-20,-3.68, 1.75, 3.47, 1.89, 1.58, 7.19, repro,
2017-04-21,-2.28, 2.76, 9.38, 1.91, 1.61, 7.32, repro,
2017-04-22,-2.76, 3.25, -3.21, 1.86, 1.58, 7.11, repro,
2017-04-23,-3.82, 4.20, 0.46, 1.86, 1.58, 7.10, repro,
2017-04-24,-3.16, 3.23, 1.03, 1.88, 1.60, 7.22, repro,
2017-04-25,-3.27, 4.44, 8.92, 1.98, 1.64, 7.59, repro,
2017-04-26,-3.52, 3.75, 18.11, 1.99, 1.73, 7.61, repro,
2017-04-27,-4.52, 5.66, 5.26, 1.90, 1.63, 7.33, repro,
2017-04-28,-3.58, 5.04, 13.56, 1.93, 1.68, 7.50, repro,
2017-04-29,-4.10, 4.78, 11.64, 1.97, 1.71, 7.68, repro,
2017-04-30,-3.56, 4.32, 10.16, 1.90, 1.64, 7.40, repro,
2017-05-01,-3.79, 2.37, 9.61, 1.87, 1.58, 7.10, repro,
2017-05-02,-4.47, 3.58, 3.49, 1.85, 1.58, 7.09, repro,
2017-05-03,-4.75, 4.26, 5.15, 1.88, 1.60, 7.21, repro,
2017-05-04,-5.73, 3.62, 1.42, 1.87, 1.59, 7.21, repro,
2017-05-05,-5.07, 4.16, 3.81, 1.89, 1.62, 7.30, repro,
2017-05-06,-4.66, 3.86, 4.93, 1.87, 1.57, 7.13, repro,
2017-05-07,-4.59, 4.14, 3.79, 1.87, 1.57, 7.12, repro,
2017-05-08,-6.61, 4.76, 5.28, 1.86, 1.60, 7.17, repro,
2017-05-09,-5.69, 4.01, 0.64, 1.87, 1.58, 7.19, repro,
2017-05-10,-4.74, 3.03, 6.83, 1.87, 1.59, 7.19, repro,
2017-05-11,-3.76, 3.96, 12.62, 2.00, 1.68, 7.67, repro,
2017-05-12,-5.43, 5.45, -0.22, 1.88, 1.57, 7.12, repro,
2017-05-13,-4.81, 3.30, -1.30, 1.85, 1.57, 7.07, repro,
2017-05-14,-6.35, 4.16, 3.57, 1.86, 1.57, 7.12, repro,
2017-05-15,-6.46, 4.03, 6.02, 1.86, 1.58, 7.12, repro,
2017-05-16,-7.09, 4.11, 5.30, 1.86, 1.58, 7.16, repro,
2017-05-17,-3.34, 5.20, 15.55, 1.98, 1.63, 7.56, repro,
2017-05-18,-4.78, 4.36, 12.13, 1.96, 1.69, 7.47, repro,
2017-05-19,-4.47, 4.85, 13.54, 2.01, 1.69, 7.72, repro,
2017-05-20,-3.53, 4.45, 6.02, 1.87, 1.58, 7.15, repro,
2017-05-21,-6.51, 3.15, -1.16, 1.85, 1.57, 7.09, repro,
2017-05-22,-5.72, 3.84, 3.06, 1.87, 1.58, 7.15, repro,
2017-05-23,-5.47, 3.43, 10.40, 1.88, 1.58, 7.16, repro,
2017-05-24,-7.92, 5.19, 11.10, 1.85, 1.57, 7.04, repro,
2017-05-25,-6.77, 3.77, 9.85, 1.88, 1.61, 7.23, repro,
2017-05-26,-5.47, 3.54, 13.59, 1.92, 1.62, 7.33, repro,
2017-05-27,-6.72, 4.51, 10.49, 1.92, 1.62, 7.40, repro,
2017-05-28,-5.46, 2.16, 14.06, 2.05, 1.71, 8.00, repro,
2017-05-29,-5.87, 4.32, 3.25, 1.85, 1.56, 7.05, repro,
2017-05-30,-6.04, 4.91, 4.94, 1.86, 1.58, 7.12, repro,
2017-05-31,-7.33, 4.74, 5.27, 1.86, 1.58, 7.12, repro,
2017-06-01,-5.91, 5.31, 5.97, 1.88, 1.60, 7.32, repro,
2017-06-02,-7.93, 4.30, 4.63, 1.87, 1.63, 7.25, repro,
2017-06-03,-7.41, 3.18, 7.07, 1.88, 1.57, 7.12, repro,
2017-06-04,-5.18, 4.64, 11.31, 1.88, 1.58, 7.15, repro,
2017-06-05,-6.23, 5.07, 14.27, 1.87, 1.58, 7.11, repro,
2017-06-06,-5.09, 5.02, 9.82, 1.88, 1.63, 7.28, repro,
2017-06-07,-6.66, 4.44, -0.34, 1.89, 1.61, 7.22, repro,
2017-06-08,-6.14, 4.36, 1.89, 1.88, 1.57, 7.11, repro,
2017-06-09,-5.78, 4.50, 1.24, 1.85, 1.57, 7.08, repro,
2017-06-10,-9.16, 4.64, 12.83, 1.85, 1.57, 7.03, repro,
2017-06-11,-8.25, 4.77, 7.55, 1.87, 1.63, 7.27, repro,
2017-06-12,-8.63, 4.57, 7.78, 1.85, 1.57, 7.07, repro,
2017-06-13,-8.42, 2.45, 5.94, 1.87, 1.58, 7.14, repro,
2017-06-14,-7.12, 4.36, 9.05, 2.00, 1.78, 7.85, repro,
2017-06-15,-6.77, 1.94, 17.73, 1.92, 1.62, 7.36, repro,
2017-06-16,-5.41, 1.98, 18.21, 2.14, 1.79, 8.48, repro,
2017-06-17,-7.37, 3.81, 11.40, 1.86, 1.58, 7.11, repro,
2017-06-18,-6.12, 3.57, 7.73, 1.95, 1.64, 7.52, repro,
2017-06-19,-5.39, 2.61, 5.86, 1.88, 1.58, 7.15, repro,
2017-06-20,-5.20, 3.60, 4.20, 1.86, 1.57, 7.11, repro,
2017-06-21,-5.46, 1.41, 5.12, 1.86, 1.58, 7.13, repro,
2017-06-22,-6.91, 2.24, 9.44, 1.85, 1.59, 7.06, repro,
2017-06-23,-7.39, 1.77, 16.46, 1.87, 1.58, 7.12, repro,
2017-06-24,-6.29, 3.23, 2.10, 1.89, 1.59, 7.20, repro,
2017-06-25,-5.98, 1.36, 3.05, 1.88, 1.58, 7.15, repro,
2017-06-26,-5.11, -0.68, 3.60, 1.86, 1.57, 7.09, repro,
2017-06-27,-5.13, 1.12, 12.83, 1.92, 1.67, 7.46, repro,
2017-06-28,-6.63, 0.96, 4.58, 1.85, 1.58, 7.07, repro,
2017-06-29,-7.76, -0.90, 10.78, 1.90, 1.59, 7.25, repro,
2017-06-30,-4.21, -0.56, -1.86, 2.09, 1.80, 8.12, repro,
2017-07-01,-4.29, 0.90, 3.90, 1.90, 1.64, 7.42, repro,
2017-07-02,-5.35, -0.52, 4.47, 2.16, 1.89, 8.44, repro,
2017-07-03,-4.77, 0.47, 5.31, 1.86, 1.59, 7.09, repro,
2017-07-04,-5.74, 3.48, 3.10, 1.95, 1.61, 7.42, repro,
2017-07-05,-4.42, -0.02, -8.14, 1.87, 1.58, 7.13, repro,
2017-07-06,-4.08, -0.31, -3.46, 1.92, 1.62, 7.31, repro,
2017-07-07,-3.35, 0.13, 1.29, 1.91, 1.62, 7.29, repro,
2017-07-08,-4.88, 1.92, 6.42, 1.99, 1.65, 7.62, repro,
2017-07-09,-3.61, 1.28, 2.82, 1.87, 1.57, 7.11, repro,
2017-07-10,-4.11, 0.95, -0.70, 1.87, 1.58, 7.13, repro,
2017-07-11,-4.84, -0.05, -4.20, 1.87, 1.58, 7.14, repro,
2017-07-12,-3.86, -0.40, -0.45, 1.93, 1.60, 7.39, repro,
2017-07-13,-5.67, -0.38, -1.11, 1.87, 1.58, 7.19, repro,
2017-07-14,-4.01, 0.35, 4.64, 2.11, 1.69, 7.74, repro,
2017-07-15,-3.66, -0.44, 4.93, 1.92, 1.60, 7.41, repro,
2017-07-16,-1.45, 0.52, 9.73, 2.04, 1.80, 8.04, repro,
2017-07-17,-3.45, -0.67, 1.74, 1.92, 1.62, 7.35, repro,
2017-07-18,-4.85, -1.00, 2.54, 1.89, 1.63, 7.32, repro,
2017-07-19,-3.85, -0.39, -0.86, 1.87, 1.59, 7.13, repro,
2017-07-20,-5.24, -0.67, 1.04, 1.90, 1.65, 7.37, repro,
2017-07-21,-3.43, -0.18, -0.31, 1.86, 1.59, 7.16, repro,
2017-07-22,-5.75, -0.45, 6.97, 2.03, 1.63, 7.64, repro,
2017-07-23,-1.42, 0.53, 4.21, 1.95, 1.65, 7.38, repro,
2017-07-24,-3.81, -0.95, -1.60, 1.86, 1.58, 7.10, repro,
2017-07-25,-4.73, 0.04, -1.41, 1.86, 1.59, 7.15, repro,
2017-07-26,-6.87, 2.17, 9.91, 1.87, 1.60, 7.18, repro,
2017-07-27,0.24, 1.81, 8.72, 1.90, 1.61, 7.30, repro,
2017-07-28,-2.91, 0.64, -5.46, 1.86, 1.58, 7.12, repro,
2017-07-29,-3.25, -1.27, -4.87, 1.87, 1.57, 7.05, repro,
2017-07-30,-1.72, 0.46, -4.92, 1.90, 1.62, 7.26, repro,
2017-07-31,-2.13, 0.60, -4.36, 1.86, 1.58, 7.09, repro,
2017-08-01,-1.94, 0.77, -4.75, 1.86, 1.57, 7.07, repro,
2017-08-02,-1.52, -0.05, -12.02, 1.86, 1.57, 7.08, repro,
2017-08-03,-2.71, -1.69, -5.39, 2.12, 1.74, 8.15, repro,
2017-08-04,-1.68, -0.71, -5.27, 1.96, 1.68, 7.56, repro,
2017-08-05,-3.14, 0.42, -4.55, 1.91, 1.63, 7.35, repro,
2017-08-06,-2.28, -0.28, 11.85, 1.99, 1.81, 7.86, repro,
2017-08-07,-0.57, 0.16, -5.82, 1.86, 1.59, 7.15, repro,
2017-08-08,-1.71, 0.93, -6.58, 1.87, 1.58, 7.09, repro,
2017-08-09,-1.30, -0.17, -11.14, 1.88, 1.58, 7.11, repro,
2017-08-10,-1.43, -0.04, -4.00, 1.85, 1.59, 7.06, repro,
2017-08-11,-0.21, 0.91, -6.66, 2.03, 1.73, 7.84, repro,
2017-08-12,1.50, 2.84, -9.59, 2.09, 1.83, 7.85, repro,
2017-08-13,-1.20, -0.70, -3.39, 1.88, 1.59, 7.15, repro,
2017-08-14,-0.02, 0.88, -3.03, 1.94, 1.61, 7.26, repro,
2017-08-15,-2.27, 1.75, 8.94, 1.95, 1.66, 7.42, repro,
2017-08-16,-2.63, 0.33, 3.74, 1.88, 1.60, 7.17, repro,
2017-08-17,-0.60, 6.83, -6.16, 2.11, 1.95, 8.20, repro,
2017-08-18,-2.51, 2.20, -0.96, 1.99, 1.67, 7.54, repro,
2017-08-19,-2.15, 2.71, -3.87, 1.94, 1.62, 7.30, repro,
2017-08-20,-2.45, 2.41, -7.39, 1.90, 1.59, 7.18, repro,
2017-08-21,-2.41, 2.24, -7.55, 1.87, 1.58, 7.08, repro,
2017-08-22,-2.15, 2.64, -8.48, 2.10, 1.70, 7.89, repro,
2017-08-23,-1.34, 0.38, -3.84, 1.90, 1.60, 7.25, repro,
2017-08-24,-1.35, 1.61, -7.03, 1.88, 1.58, 7.16, repro,
2017-08-25,-1.68, 1.87, -4.45, 1.95, 1.61, 7.32, repro,
2017-08-26,-0.59, 3.89, -8.24, 1.88, 1.58, 7.13, repro,
2017-08-27,-1.26, 4.20, -3.49, 1.86, 1.57, 7.04, repro,
2017-08-28,-0.31, 2.87, -4.32, 1.89, 1.61, 7.21, repro,
2017-08-29,-1.18, 0.89, -10.48, 1.90, 1.62, 7.20, repro,
2017-08-30,-0.05, 2.62, -5.96, 1.88, 1.58, 7.14, repro,
2017-08-31,-1.48, 2.36, -3.28, 1.94, 1.60, 7.33, repro,
2017-09-01,-1.77, 3.48, 0.56, 1.93, 1.59, 7.25, repro,
2017-09-02,-1.44, 3.17, -3.89, 1.86, 1.56, 7.03, repro,
2017-09-03,-2.01, 3.00, -0.53, 1.96, 1.73, 7.43, repro,
2017-09-04,-1.28, 2.46, -5.42, 1.86, 1.58, 7.06, repro,
2017-09-05,-2.72, 3.34, -0.55, 1.89, 1.59, 7.21, repro,
2017-09-06,-2.36, 2.83, 0.05, 1.87, 1.58, 7.16, repro,
2017-09-07,-2.65, 3.78, 3.52, 1.88, 1.60, 7.18, repro,
2017-09-08,-1.72, 3.05, 1.53, 1.91, 1.65, 7.20, repro,
2017-09-09,-1.32, 2.62, -0.27, 1.86, 1.58, 7.11, repro,
2017-09-10,-1.58, 3.51, -1.31, 1.86, 1.57, 7.09, repro,
2017-09-11,-1.04, 3.29, -2.01, 1.87, 1.58, 7.12, repro,
2017-09-12,-0.80, 2.79, 3.14, 1.88, 1.60, 7.19, repro,
2017-09-13,-1.34, 2.47, 8.09, 1.90, 1.61, 7.29, repro,
2017-09-14,-0.87, 1.62, 7.24, 1.94, 1.66, 7.52, repro,
2017-09-15,-2.32, 2.57, -4.00, 1.96, 1.67, 7.56, repro,
2017-09-16,-2.44, 0.99, 6.82, 1.88, 1.59, 7.18, repro,
2017-09-17,-0.39, 0.22, 2.97, 2.02, 1.69, 7.69, repro,
2017-09-18,-0.88, 1.91, 1.06, 1.86, 1.58, 7.11, repro,
2017-09-19,-2.47, 3.99, 12.64, 2.05, 1.82, 7.96, repro,
2017-09-20,-0.95, 4.94, 6.33, 1.92, 1.64, 7.37, repro,
2017-09-21,-1.72, 3.03, 1.74, 1.88, 1.58, 7.14, repro,
2017-09-22,-1.95, 2.78, -5.13, 1.87, 1.58, 7.10, repro,
2017-09-23,-1.46, 3.00, -0.78, 1.86, 1.57, 7.01, repro,
2017-09-24,-1.26, 2.19, 2.04, 1.87, 1.59, 7.14, repro,
2017-09-25,-0.95, 2.19, 8.84, 1.92, 1.64, 7.44, repro,
2017-09-26,0.25, 5.72, -1.19, 1.89, 1.58, 7.17, repro,
2017-09-27,0.61, 2.16, -3.29, 1.87, 1.57, 7.05, repro,
2017-09-28,-0.02, 2.13, -1.89, 1.85, 1.57, 7.00, repro,
2017-09-29,-0.41, 2.66, -1.80, 1.87, 1.58, 7.10, repro,
2017-09-30,0.18, 2.57, -4.47, 1.88, 1.57, 7.12, repro,
2017-10-01,-0.57, 3.74, 3.89, 1.89, 1.58, 7.14, repro,
2017-10-02,-1.58, 3.21, 0.73, 1.87, 1.57, 7.02, repro,
2017-10-03,0.01, 3.82, -0.36, 1.87, 1.57, 6.98, repro,
2017-10-04,0.64, 2.26, -7.84, 2.00, 1.70, 7.63, repro,
2017-10-05,-2.17, 6.62, -4.25, 1.88, 1.58, 7.15, repro,
2017-10-06,-2.29, 2.24, -2.25, 1.89, 1.59, 7.19, repro,
2017-10-07,-2.01, 3.21, 12.34, 1.97, 1.66, 7.41, repro,
2017-10-08,-2.09, 3.54, 11.94, 1.87, 1.56, 7.00, repro,
2017-10-09,-2.57, 4.09, 3.48, 1.90, 1.62, 7.24, repro,
2017-10-10,-1.87, 2.74, -6.04, 1.87, 1.57, 7.05, repro,
2017-10-11,0.05, 4.63, -5.73, 1.87, 1.58, 7.11, repro,
2017-10-12,-0.79, 3.57, -0.33, 1.90, 1.60, 7.25, repro,
2017-10-13,-3.38, 3.72, 0.57, 1.88, 1.58, 7.09, repro,
2017-10-14,-1.75, 3.79, -0.27, 1.87, 1.57, 7.05, repro,
2017-10-15,-1.44, 1.22, 6.43, 1.91, 1.62, 7.32, repro,
2017-10-16,-1.54, 3.83, -8.10, 1.87, 1.57, 7.06, repro,
2017-10-17,-1.54, 3.47, -2.96, 1.87, 1.58, 7.10, repro,
2017-10-18,-2.09, 2.94, -0.15, 1.87, 1.58, 7.07, repro,
2017-10-19,-2.18, 2.76, -0.30, 1.92, 1.60, 7.15, repro,
2017-10-20,-3.41, 2.99, 5.66, 1.91, 1.62, 7.19, repro,
2017-10-21,-1.06, 4.53, 4.56, 1.90, 1.63, 7.22, repro,
2017-10-22,-1.19, 3.79, 4.99, 1.99, 1.74, 7.58, repro,
2017-10-23,-1.81, 3.43, 1.02, 1.87, 1.58, 7.12, repro,
2017-10-24,-1.17, 2.55, 0.05, 1.87, 1.58, 7.13, repro,
2017-10-25,-2.87, 3.74, 3.99, 1.86, 1.58, 7.07, repro,
2017-10-26,-2.10, 3.34, 4.70, 1.86, 1.58, 7.06, repro,
2017-10-27,-1.48, 2.49, -0.42, 1.94, 1.61, 7.42, repro,
2017-10-28,-2.28, 3.37, -3.15, 1.87, 1.58, 7.11, repro,
2017-10-29,-2.89, 3.36, 4.81, 1.87, 1.57, 7.06, repro,
2017-10-30,-1.80, 3.34, 3.61, 1.87, 1.57, 7.03, repro,
2017-10-31,-2.33, 2.50, -0.24, 1.86, 1.57, 6.99, repro,
2017-11-01,-2.90, 3.40, 4.58, 1.88, 1.58, 7.10, repro,
2017-11-02,-1.77, 3.68, 2.26, 1.93, 1.58, 7.21, repro,
2017-11-03,-3.71, 5.51, -6.49, 1.88, 1.57, 7.09, repro,
2017-11-04,-3.60, 6.09, 0.28, 1.87, 1.56, 7.06, repro,
2017-11-05,-3.47, 4.83, 0.39, 1.87, 1.57, 7.04, repro,
2017-11-06,-2.97, 2.47, 3.66, 1.88, 1.58, 7.11, repro,
2017-11-07,-2.49, 3.13, -5.12, 1.87, 1.57, 7.10, repro,
2017-11-08,-2.11, 3.20, -8.23, 1.88, 1.58, 7.17, repro,
2017-11-09,-3.11, 3.85, -0.77, 1.92, 1.57, 7.24, repro,
2017-11-10,-2.72, 4.06, 0.96, 1.93, 1.57, 7.25, repro,
2017-11-11,-3.55, 3.77, -1.58, 1.94, 1.63, 7.25, repro,
2017-11-12,-4.45, 4.19, -4.17, 1.86, 1.57, 7.06, repro,
2017-11-13,-2.93, 2.40, -8.35, 1.88, 1.57, 7.11, repro,
2017-11-14,-4.26, 3.23, -0.70, 1.88, 1.57, 7.09, repro,
2017-11-15,-3.55, 3.55, 3.23, 1.87, 1.56, 7.05, repro,
2017-11-16,-2.93, 3.38, 2.66, 1.87, 1.56, 7.02, repro,
2017-11-17,-4.96, 4.73, 9.12, 1.87, 1.57, 7.05, repro,
2017-11-18,-3.73, 2.19, 6.96, 1.88, 1.57, 7.07, repro,
2017-11-19,-3.76, 3.14, -0.17, 1.87, 1.56, 7.03, repro,
2017-11-20,-3.70, 3.07, 2.04, 1.87, 1.57, 7.07, repro,
2017-11-21,-3.95, 3.32, 7.47, 1.88, 1.57, 7.10, repro,
2017-11-22,-3.28, 2.60, -2.03, 1.88, 1.57, 7.08, repro,
2017-11-23,-2.75, 2.70, -2.40, 1.88, 1.58, 7.13, repro,
2017-11-24,-3.54, 3.46, 6.74, 1.87, 1.57, 7.06, repro,
2017-11-25,-3.43, 3.00, 2.02, 1.87, 1.57, 7.06, repro,
2017-11-26,-3.89, 3.14, -2.33, 1.88, 1.57, 7.14, repro,
2017-11-27,-5.09, 4.11, 6.37, 1.88, 1.58, 7.13, repro,
2017-11-28,-4.35, 3.25, 5.41, 1.88, 1.57, 7.13, repro,
2017-11-29,-3.41, 2.86, 1.52, 1.90, 1.60, 7.19, repro,
2017-11-30,-1.48, 4.37, -2.58, 1.89, 1.59, 7.13, repro,
2017-12-01,-3.01, 3.63, 1.73, 1.86, 1.56, 7.06, repro,
2017-12-02,-3.05, 2.66, 3.03, 1.87, 1.56, 7.06, repro,
2017-12-03,-2.46, 3.87, 5.50, 1.86, 1.56, 7.07, repro,
2017-12-04,-2.95, 3.96, 3.89, 1.89, 1.57, 7.13, repro,
2017-12-05,-3.81, 3.69, 2.21, 1.86, 1.56, 7.05, repro,
2017-12-06,-3.61, 3.66, -2.26, 1.85, 1.56, 7.04, repro,
2017-12-07,-3.75, 2.83, -1.30, 1.86, 1.56, 7.04, repro,
2017-12-08,-4.19, 2.94, 7.03, 1.86, 1.56, 7.05, repro,
2017-12-09,-4.79, 3.04, 4.24, 1.86, 1.56, 7.05, repro,
2017-12-10,-3.53, 3.49, -0.18, 1.87, 1.56, 7.07, repro,
2017-12-11,-3.06, 2.97, 0.80, 2.01, 1.69, 7.65, repro,
2017-12-12,-3.58, 3.51, 2.61, 1.86, 1.56, 7.06, repro,
2017-12-13,-3.74, 2.90, 6.85, 1.87, 1.56, 7.05, repro,
2017-12-14,-2.80, 2.81, 3.63, 1.94, 1.60, 7.38, repro,
2017-12-15,-3.73, 2.70, -0.86, 1.87, 1.56, 7.10, repro,
2017-12-16,-3.48, 3.71, 4.44, 1.88, 1.57, 7.18, repro,
2017-12-17,-4.61, 2.62, 5.89, 1.87, 1.57, 7.10, repro,
2017-12-18,-3.18, 2.72, 3.29, 1.86, 1.57, 7.11, repro,
2017-12-19,-3.49, 2.30, 8.99, 1.92, 1.57, 7.29, repro,
2017-12-20,-5.03, 5.90, 0.76, 1.86, 1.56, 7.04, repro,
2017-12-21,-2.38, 3.51, 5.69, 1.87, 1.57, 7.13, repro,
2017-12-22,-3.15, 3.49, 4.86, 1.89, 1.57, 7.16, repro,
2017-12-23,-2.67, 3.53, 0.17, 1.86, 1.56, 7.06, repro,
2017-12-24,-3.44, 3.41, -1.98, 1.85, 1.56, 7.03, repro,
2017-12-25,-3.01, 4.03, -1.98, 1.88, 1.57, 7.16, repro,
2017-12-26,-3.34, 4.06, -4.84, 1.88, 1.57, 7.11, repro,
2017-12-27,-3.16, 4.14, -10.97, 1.88, 1.57, 7.14, repro,
2017-12-28,-3.50, 4.06, -6.94, 1.88, 1.57, 7.11, repro,
2017-12-29,-4.29, 4.20, -2.88, 1.85, 1.56, 7.05, repro,
2017-12-30,-3.74, 3.50, -6.64, 1.87, 1.58, 7.16, repro,